GAOFEN 3

Satellite information

Favourite Embed

Satellite Type and Status

PAYLOADIN ORBIT

Key statistics

Satellite GAOFEN 3 at a glance.

Uptime

3194

Days in orbit

Revolutions

≈ 14.4

Per day

Orbit

SSO

Sun Synchronous Orbit

Inclination

98.4

Latest

Satellite identification and parameters

Extended collection of information and parameters for GAOFEN 3.

Object identification

Identified? True

Debris? False

Object name: GAOFEN 3

International designator: 2016-049A

Object number (NORAD): 41727

Object ID (CCSDS): 41727

Country: PEOPLES REPUBLIC OF CHINA (PRC)

Current information (Y/N): Y

RCS size: LARGE

Orbital parameters

Period: 99.851 minutes

Inclination: 98.4041 deg

SMA: 7129.542 km

Apoapsis: 752.002 km

Periapsis: 750.813 km

RAAN: 136.7686 deg

Eccentricy: 0.0000834

Argument of periapsis: 83.5729 deg

Mean anomaly: 276.5556 deg

Mean motion: 14.4214957 rev/day

Mean motion (dot): 0.00000094 rev/day2

B* drag term: 0.000041885 1/REarth

Two-line elements (TLE)

Creation date: May 8, 2025, 3:01 a.m.

Reference frame: TEME

Reference center: EARTH

Epoch: May 7, 2025, 9:58 p.m. UTC

TLE line 0: 0 GAOFEN 3

TLE line 1: 1 41727U 16049A 25127.91583999 .00000094 00000-0 41885-4 0 9994

TLE line 2: 2 41727 98.4041 136.7686 0000834 83.5729 276.5556 14.42149570460233

Live tracking on map

Real-time ground track for satellite GAOFEN 3.

In-orbit conjunctions

There are no conjunctions computed for GAOFEN 3, at the moment. Check back to stay up to date, as we update our databases every day.

Go to all conjunctions

Associated space launch

Gaofen 3 is the first medium-sized and long life (8 years) civil satellite of China. The satellite is a C-band Synthetic Aperture Radar capable of up to 1m ground resolution.

GAOFEN 3 was lifted into orbit during the mission ‘Long March 4C | Gaofen 3’, on board a Long March 4C space rocket.

The launch took place on Aug. 9, 2016, 10:55 p.m. from Launch Complex 9.

For more information about the launch, click the button.

Launch to space Long March 4C | Gaofen 3
Long March 4C | Gaofen 3

Agency: N/A

Status: Launch Successful

Launch date: Aug. 9, 2016, 10:55 p.m. UTC

Rocket: Long March 4C

Launch pad: Launch Complex 9

Location: Taiyuan Satellite Launch Center, People's Republic of China

...

Latest news about this satellite

There are no fresh news available about this satellite. Check back as we update our databases every day.


Newsletter sign-up

Weekly statistics, charts and insights to help you stay on top of the space industry.